Time,TemperatureF,DewpointF,PressureIn,WindDirection,WindDirectionDegrees,WindSpeedMPH,WindSpeedGustMPH,Humidity,HourlyPrecipIn,Conditions,Clouds,dailyrainin,SoftwareType,DateUTC
2013-04-11 00:00:00,47.7,46.9,29.95,North,360,0.0,0.0,97,0.01,RA,,0.14,WeatherDisplay:10.37,2013-04-11 04:00:00,
2013-04-11 00:05:00,47.6,46.8,29.94,North,360,0.0,0.0,97,0.01,-RA,,0.00,WeatherDisplay:10.37,2013-04-11 04:05:00,
2013-04-11 00:10:00,47.5,46.7,29.94,SE,135,0.3,1.3,97,0.01,-RA,,0.00,WeatherDisplay:10.37,2013-04-11 04:10:00,
2013-04-11 00:15:00,47.5,46.7,29.91,SE,135,0.5,1.2,97,0.01,-RA,,0.00,WeatherDisplay:10.37,2013-04-11 04:15:00,
2013-04-11 00:20:00,47.5,46.7,29.93,SW,225,0.0,0.0,97,0.01,-RA,,0.00,WeatherDisplay:10.37,2013-04-11 04:20:00,
2013-04-11 00:25:00,47.4,46.6,29.93,South,180,0.5,1.2,97,0.01,-RA,,0.00,WeatherDisplay:10.37,2013-04-11 04:25:00,
2013-04-11 00:30:00,47.4,46.6,29.92,South,180,0.0,0.0,97,0.01,-RA,,0.00,WeatherDisplay:10.37,2013-04-11 04:30:00,
2013-04-11 00:35:00,47.4,46.6,29.93,South,180,0.0,0.0,97,0.01,-RA,,0.00,WeatherDisplay:10.37,2013-04-11 04:35:00,
2013-04-11 00:40:00,47.3,46.5,29.93,South,180,0.0,0.0,97,0.01,-RA,,0.00,WeatherDisplay:10.37,2013-04-11 04:40:00,
2013-04-11 00:45:00,47.3,46.5,29.93,South,180,0.0,0.0,97,0.01,-RA,,0.00,WeatherDisplay:10.37,2013-04-11 04:45:00,
2013-04-11 00:50:00,47.4,46.6,29.93,South,180,0.0,0.0,97,0.01,-RA,,0.00,WeatherDisplay:10.37,2013-04-11 04:50:00,
2013-04-11 00:55:00,47.3,46.5,29.92,SSE,157,0.0,0.0,97,0.01,-RA,,0.00,WeatherDisplay:10.37,2013-04-11 04:55:00,
2013-04-11 01:00:00,47.3,46.5,29.92,SSE,157,0.0,0.0,97,0.00,-RA,,0.00,WeatherDisplay:10.37,2013-04-11 05:00:00,
2013-04-11 01:05:00,47.3,46.5,29.93,SSE,157,0.0,0.0,97,0.00,OVC,,0.00,WeatherDisplay:10.37,2013-04-11 05:05:00,
2013-04-11 01:10:00,47.4,46.6,29.93,NE,45,0.0,0.0,97,0.00,OVC,,0.00,WeatherDisplay:10.37,2013-04-11 05:10:00,
2013-04-11 01:15:00,47.4,46.6,29.94,NE,45,0.0,0.0,97,0.00,OVC,,0.00,WeatherDisplay:10.37,2013-04-11 05:15:00,
2013-04-11 01:20:00,47.4,46.6,29.94,NE,45,0.0,0.0,97,0.00,OVC,,0.00,WeatherDisplay:10.37,2013-04-11 05:20:00,
2013-04-11 01:25:00,47.4,46.6,29.94,NE,45,0.0,0.0,97,0.00,OVC,,0.00,WeatherDisplay:10.37,2013-04-11 05:25:00,
2013-04-11 01:30:00,47.5,46.7,29.93,NE,45,0.0,0.0,97,0.00,OVC,,0.00,WeatherDisplay:10.37,2013-04-11 05:30:00,
2013-04-11 01:35:00,47.4,46.6,29.92,NE,45,0.0,0.0,97,0.00,OVC,,0.00,WeatherDisplay:10.37,2013-04-11 05:35:00,
2013-04-11 01:40:00,47.4,46.6,29.92,NE,45,0.0,0.0,97,0.00,OVC,,0.00,WeatherDisplay:10.37,2013-04-11 05:40:00,
2013-04-11 01:45:00,47.4,46.6,29.92,NE,45,0.0,0.0,97,0.00,OVC,,0.00,WeatherDisplay:10.37,2013-04-11 05:45:00,
2013-04-11 01:50:00,47.5,46.7,29.92,NE,45,0.0,0.0,97,0.00,OVC,,0.00,WeatherDisplay:10.37,2013-04-11 05:50:00,
2013-04-11 01:55:00,47.5,46.7,29.92,NE,45,0.0,0.0,97,0.00,OVC,,0.00,WeatherDisplay:10.37,2013-04-11 05:55:00,
2013-04-11 02:00:00,47.4,46.6,29.91,NE,45,0.0,0.0,97,0.00,OVC,,0.00,WeatherDisplay:10.37,2013-04-11 06:00:00,
2013-04-11 02:05:00,47.5,46.7,29.91,NE,45,0.0,0.0,97,0.00,-RA,,0.00,WeatherDisplay:10.37,2013-04-11 06:05:00,
2013-04-11 02:10:00,47.5,46.7,29.90,NE,45,0.0,0.0,97,0.00,-RA,,0.00,WeatherDisplay:10.37,2013-04-11 06:10:00,
2013-04-11 02:16:00,47.4,46.6,29.90,NE,45,0.0,0.0,97,0.00,-RA,,0.00,WeatherDisplay:10.37,2013-04-11 06:16:00,
2013-04-11 02:20:00,47.4,46.6,29.89,NE,45,0.0,0.0,97,0.00,-RA,,0.00,WeatherDisplay:10.37,2013-04-11 06:20:00,
2013-04-11 02:25:00,47.4,46.6,29.88,NE,45,0.5,0.0,97,0.00,-RA,,0.00,WeatherDisplay:10.37,2013-04-11 06:25:00,
2013-04-11 02:30:00,47.4,46.6,29.88,NE,45,0.1,1.2,97,0.00,-RA,,0.00,WeatherDisplay:10.37,2013-04-11 06:30:00,
2013-04-11 02:35:00,47.5,46.7,29.88,NE,45,0.0,0.0,97,0.00,-RA,,0.00,WeatherDisplay:10.37,2013-04-11 06:35:00,
2013-04-11 02:40:00,47.5,46.7,29.88,NE,45,0.0,0.0,97,0.00,-RA,,0.00,WeatherDisplay:10.37,2013-04-11 06:40:00,
2013-04-11 02:46:00,47.6,46.8,29.88,NW,315,1.8,2.3,97,0.00,-RA,,0.00,WeatherDisplay:10.37,2013-04-11 06:46:00,
2013-04-11 02:50:00,47.6,46.8,29.88,NW,315,0.3,2.3,97,0.00,-RA,,0.00,WeatherDisplay:10.37,2013-04-11 06:50:00,
2013-04-11 02:55:00,47.6,46.8,29.88,NW,315,0.1,1.2,97,0.00,-RA,,0.00,WeatherDisplay:10.37,2013-04-11 06:55:00,
2013-04-11 03:00:00,47.6,46.8,29.88,NW,315,0.2,0.0,97,0.00,-RA,,0.00,WeatherDisplay:10.37,2013-04-11 07:00:00,
2013-04-11 03:05:00,47.6,46.8,29.88,NNW,337,2.0,2.0,97,0.00,OVC,,0.00,WeatherDisplay:10.37,2013-04-11 07:05:00,
2013-04-11 03:10:00,47.6,46.8,29.89,North,360,2.4,2.4,97,0.00,OVC,,0.00,WeatherDisplay:10.37,2013-04-11 07:10:00,
2013-04-11 03:16:00,47.6,46.8,29.89,North,360,3.0,3.0,97,0.00,OVC,,0.00,WeatherDisplay:10.37,2013-04-11 07:16:00,
2013-04-11 03:20:00,47.5,46.7,29.89,North,360,0.4,1.2,97,0.00,OVC,,0.00,WeatherDisplay:10.37,2013-04-11 07:20:00,
2013-04-11 03:25:00,47.6,46.8,29.90,North,360,1.1,2.3,97,0.00,OVC,,0.00,WeatherDisplay:10.37,2013-04-11 07:25:00,
2013-04-11 03:30:00,47.6,46.8,29.90,North,360,0.0,0.0,97,0.00,OVC,,0.00,WeatherDisplay:10.37,2013-04-11 07:30:00,
2013-04-11 03:35:00,47.6,46.8,29.89,North,360,0.4,2.3,97,0.00,OVC,,0.00,WeatherDisplay:10.37,2013-04-11 07:35:00,
2013-04-11 03:40:00,47.6,46.8,29.89,NNW,337,2.5,2.5,97,0.00,OVC,,0.00,WeatherDisplay:10.37,2013-04-11 07:40:00,
2013-04-11 03:46:00,47.6,46.8,29.89,NNW,337,0.1,1.2,97,0.00,OVC,,0.00,WeatherDisplay:10.37,2013-04-11 07:46:00,
2013-04-11 03:50:00,47.6,46.8,29.89,NNW,337,0.2,2.3,97,0.00,OVC,,0.00,WeatherDisplay:10.37,2013-04-11 07:50:00,
2013-04-11 03:55:00,47.6,46.8,29.89,North,360,0.0,0.0,97,0.00,OVC,,0.00,WeatherDisplay:10.37,2013-04-11 07:55:00,
2013-04-11 04:00:00,47.6,46.8,29.88,NW,315,0.0,2.3,97,0.00,OVC,,0.00,WeatherDisplay:10.37,2013-04-11 08:00:00,
2013-04-11 04:05:00,47.6,46.8,29.88,NNW,337,2.4,2.4,97,0.00,OVC,,0.00,WeatherDisplay:10.37,2013-04-11 08:05:00,
2013-04-11 04:10:00,47.8,47.0,29.89,West,270,1.9,2.3,97,0.00,OVC,,0.00,WeatherDisplay:10.37,2013-04-11 08:10:00,
2013-04-11 04:15:00,47.8,47.0,29.89,North,360,2.1,2.3,97,0.00,OVC,,0.00,WeatherDisplay:10.37,2013-04-11 08:15:00,
2013-04-11 04:20:00,47.9,47.1,29.90,West,270,2.9,2.9,97,0.00,OVC,,0.00,WeatherDisplay:10.37,2013-04-11 08:20:00,
2013-04-11 04:25:00,47.9,47.1,29.90,West,270,0.6,1.2,97,0.00,OVC,,0.00,WeatherDisplay:10.37,2013-04-11 08:25:00,
2013-04-11 04:30:00,47.9,47.1,29.90,WNW,292,3.1,3.1,97,0.00,OVC,,0.00,WeatherDisplay:10.37,2013-04-11 08:30:00,
2013-04-11 04:35:00,47.9,47.1,29.90,NE,45,3.1,3.1,97,0.00,OVC,,0.00,WeatherDisplay:10.37,2013-04-11 08:35:00,
2013-04-11 04:40:00,47.9,47.1,29.89,SE,135,1.1,2.3,97,0.00,OVC,,0.00,WeatherDisplay:10.37,2013-04-11 08:40:00,
2013-04-11 04:46:00,48.0,47.2,29.90,NE,45,0.6,2.3,97,0.00,OVC,,0.00,WeatherDisplay:10.37,2013-04-11 08:46:00,
2013-04-11 04:50:00,48.1,47.3,29.89,NNE,22,0.1,1.2,97,0.00,OVC,,0.00,WeatherDisplay:10.37,2013-04-11 08:50:00,
2013-04-11 04:55:00,48.2,47.4,29.89,North,360,0.0,0.0,97,0.00,OVC,,0.00,WeatherDisplay:10.37,2013-04-11 08:55:00,
2013-04-11 05:00:00,48.2,47.4,29.90,NW,315,1.5,4.1,97,0.00,OVC,,0.00,WeatherDisplay:10.37,2013-04-11 09:00:00,
2013-04-11 05:05:00,48.1,47.3,29.90,West,270,3.8,6.9,97,0.00,OVC,,0.00,WeatherDisplay:10.37,2013-04-11 09:05:00,
2013-04-11 05:10:00,47.9,47.1,29.90,WNW,292,3.5,5.8,97,0.00,OVC,,0.00,WeatherDisplay:10.37,2013-04-11 09:10:00,
2013-04-11 05:15:00,47.9,47.1,29.90,NW,315,1.6,4.6,97,0.00,OVC,,0.00,WeatherDisplay:10.37,2013-04-11 09:15:00,
2013-04-11 05:20:00,47.9,47.1,29.90,WNW,292,2.7,5.8,97,0.00,OVC,,0.00,WeatherDisplay:10.37,2013-04-11 09:20:00,
2013-04-11 05:25:00,47.9,47.1,29.91,SE,135,1.5,2.3,97,0.00,OVC,,0.00,WeatherDisplay:10.37,2013-04-11 09:25:00,
2013-04-11 05:30:00,47.9,47.1,29.91,North,360,2.8,4.6,97,0.00,OVC,,0.00,WeatherDisplay:10.37,2013-04-11 09:30:00,
2013-04-11 05:35:00,47.9,47.1,29.92,NNE,22,3.1,4.6,97,0.00,OVC,,0.00,WeatherDisplay:10.37,2013-04-11 09:35:00,
2013-04-11 05:40:00,47.9,47.1,29.92,NNW,337,2.2,8.1,97,0.00,OVC,,0.00,WeatherDisplay:10.37,2013-04-11 09:40:00,
2013-04-11 05:46:00,47.9,47.1,29.92,North,360,0.7,2.3,97,0.00,OVC,,0.00,WeatherDisplay:10.37,2013-04-11 09:46:00,
2013-04-11 05:50:00,47.9,47.1,29.93,NW,315,2.2,2.7,97,0.00,OVC,,0.00,WeatherDisplay:10.37,2013-04-11 09:50:00,
2013-04-11 05:55:00,47.9,47.1,29.93,WNW,292,1.5,2.3,97,0.00,OVC,,0.00,WeatherDisplay:10.37,2013-04-11 09:55:00,
2013-04-11 06:00:00,47.8,47.0,29.93,West,270,1.7,2.3,97,0.00,OVC,,0.00,WeatherDisplay:10.37,2013-04-11 10:00:00,
2013-04-11 06:05:00,47.8,47.0,29.93,NNE,22,2.3,2.3,97,0.00,OVC,,0.00,WeatherDisplay:10.37,2013-04-11 10:05:00,
2013-04-11 06:10:00,47.8,47.0,29.94,West,270,2.4,2.7,97,0.00,OVC,,0.00,WeatherDisplay:10.37,2013-04-11 10:10:00,
2013-04-11 06:16:00,47.8,47.0,29.94,SSE,157,0.4,2.3,97,0.00,OVC,,0.00,WeatherDisplay:10.37,2013-04-11 10:16:00,
2013-04-11 06:20:00,47.8,47.0,29.95,NE,45,0.1,2.3,97,0.00,OVC,,0.00,WeatherDisplay:10.37,2013-04-11 10:20:00,
2013-04-11 06:25:00,47.8,47.0,29.96,NE,45,1.9,2.3,97,0.00,OVC,,0.00,WeatherDisplay:10.37,2013-04-11 10:25:00,
2013-04-11 06:30:00,47.9,47.1,29.96,SE,135,0.2,2.7,97,0.00,OVC,,0.00,WeatherDisplay:10.37,2013-04-11 10:30:00,
2013-04-11 06:35:00,47.8,47.0,29.96,NNW,337,1.9,5.8,97,0.00,OVC,,0.00,WeatherDisplay:10.37,2013-04-11 10:35:00,
2013-04-11 06:40:00,47.7,46.9,29.96,NNW,337,5.1,6.9,97,0.00,OVC,,0.00,WeatherDisplay:10.37,2013-04-11 10:40:00,
2013-04-11 06:46:00,47.7,46.9,29.98,NE,45,1.4,2.7,97,0.00,OVC,,0.00,WeatherDisplay:10.37,2013-04-11 10:46:00,
2013-04-11 06:50:00,47.7,46.9,29.98,NE,45,0.9,8.1,97,0.00,OVC,,0.00,WeatherDisplay:10.37,2013-04-11 10:50:00,
2013-04-11 06:55:00,47.7,46.9,29.98,NNE,22,2.7,8.1,97,0.00,OVC,,0.00,WeatherDisplay:10.37,2013-04-11 10:55:00,
2013-04-11 07:00:00,47.7,46.9,29.98,NE,45,1.8,2.7,97,0.00,OVC,,0.00,WeatherDisplay:10.37,2013-04-11 11:00:00,
2013-04-11 07:05:00,47.6,46.8,29.98,NE,45,4.2,6.9,97,0.00,OVC,,0.00,WeatherDisplay:10.37,2013-04-11 11:05:00,
2013-04-11 07:10:00,47.6,46.8,29.99,NNE,22,3.5,5.8,97,0.00,OVC,,0.00,WeatherDisplay:10.37,2013-04-11 11:10:00,
2013-04-11 07:16:00,47.7,46.9,29.99,NNE,22,3.1,5.8,97,0.00,OVC,,0.00,WeatherDisplay:10.37,2013-04-11 11:16:00,
2013-04-11 07:20:00,47.6,46.8,29.99,North,360,1.7,5.8,97,0.00,OVC,,0.00,WeatherDisplay:10.37,2013-04-11 11:20:00,
2013-04-11 07:25:00,47.5,46.7,29.99,NW,315,4.0,5.8,97,0.00,OVC,,0.00,WeatherDisplay:10.37,2013-04-11 11:25:00,
2013-04-11 07:30:00,47.5,46.7,29.99,NE,45,1.8,2.3,97,0.00,OVC,,0.00,WeatherDisplay:10.37,2013-04-11 11:30:00,
2013-04-11 07:35:00,47.4,46.6,29.99,SW,225,0.6,2.3,97,0.00,OVC,,0.00,WeatherDisplay:10.37,2013-04-11 11:35:00,
2013-04-11 07:40:00,47.3,46.5,29.99,NW,315,1.5,2.7,97,0.00,OVC,,0.00,WeatherDisplay:10.37,2013-04-11 11:40:00,
2013-04-11 07:46:00,47.3,46.5,29.99,NE,45,2.7,4.6,97,0.00,OVC,,0.00,WeatherDisplay:10.37,2013-04-11 11:46:00,
2013-04-11 07:50:00,47.2,46.4,30.00,NNW,337,0.0,1.2,97,0.00,OVC,,0.00,WeatherDisplay:10.37,2013-04-11 11:50:00,
2013-04-11 07:55:00,47.2,46.4,30.00,WNW,292,1.7,1.7,97,0.00,OVC,,0.00,WeatherDisplay:10.37,2013-04-11 11:55:00,
2013-04-11 08:00:00,47.1,46.3,30.00,WNW,292,2.8,5.8,97,0.00,OVC,,0.00,WeatherDisplay:10.37,2013-04-11 12:00:00,
2013-04-11 08:05:00,46.9,46.1,30.01,North,360,3.4,8.1,97,0.00,OVC,,0.00,WeatherDisplay:10.37,2013-04-11 12:05:00,
2013-04-11 08:10:00,46.9,46.1,30.00,NW,315,1.8,4.6,97,0.00,OVC,,0.00,WeatherDisplay:10.37,2013-04-11 12:10:00,
2013-04-11 08:16:00,46.9,46.1,30.00,SSW,202,1.2,2.3,97,0.00,OVC,,0.00,WeatherDisplay:10.37,2013-04-11 12:16:00,
2013-04-11 08:20:00,46.9,46.1,29.99,SW,225,2.6,2.6,97,0.00,OVC,,0.00,WeatherDisplay:10.37,2013-04-11 12:20:00,
2013-04-11 08:25:00,46.9,46.1,29.99,SE,135,1.7,2.3,97,0.00,OVC,,0.00,WeatherDisplay:10.37,2013-04-11 12:25:00,
2013-04-11 08:30:00,46.9,46.1,29.99,NE,45,1.3,2.3,97,0.00,OVC,,0.00,WeatherDisplay:10.37,2013-04-11 12:30:00,
2013-04-11 08:35:00,47.0,46.2,29.98,SSW,202,1.9,2.3,97,0.00,OVC,,0.00,WeatherDisplay:10.37,2013-04-11 12:35:00,
2013-04-11 08:40:00,47.0,46.2,29.98,SE,135,2.4,2.7,97,0.00,OVC,,0.00,WeatherDisplay:10.37,2013-04-11 12:40:00,
2013-04-11 08:46:00,47.1,46.3,29.97,NNW,337,2.6,2.6,97,0.00,OVC,,0.00,WeatherDisplay:10.37,2013-04-11 12:46:00,
2013-04-11 08:50:00,47.1,46.3,30.00,West,270,1.9,2.7,97,0.00,OVC,,0.00,WeatherDisplay:10.37,2013-04-11 12:50:00,
2013-04-11 08:55:00,47.2,46.4,30.02,North,360,0.6,2.7,97,0.00,OVC,,0.00,WeatherDisplay:10.37,2013-04-11 12:55:00,
2013-04-11 09:00:00,47.3,46.5,30.02,WSW,247,0.7,2.3,97,0.00,OVC,,0.00,WeatherDisplay:10.37,2013-04-11 13:00:00,
2013-04-11 09:05:00,47.3,46.5,30.03,WNW,292,2.7,2.7,97,0.00,OVC,,0.00,WeatherDisplay:10.37,2013-04-11 13:05:00,
2013-04-11 09:10:00,47.3,46.5,30.04,NW,315,2.1,2.3,97,0.00,OVC,,0.00,WeatherDisplay:10.37,2013-04-11 13:10:00,
2013-04-11 09:16:00,47.4,46.6,30.03,NNW,337,0.1,2.7,97,0.00,OVC,,0.00,WeatherDisplay:10.37,2013-04-11 13:16:00,
2013-04-11 09:20:00,47.3,46.5,30.04,North,360,1.3,2.3,97,0.00,OVC,,0.00,WeatherDisplay:10.37,2013-04-11 13:20:00,
2013-04-11 09:25:00,47.3,46.5,30.04,SE,135,0.9,1.3,97,0.00,OVC,,0.00,WeatherDisplay:10.37,2013-04-11 13:25:00,
2013-04-11 09:31:00,47.3,46.5,30.04,SE,135,0.6,1.3,97,0.00,OVC,,0.00,WeatherDisplay:10.37,2013-04-11 13:31:00,
2013-04-11 09:35:00,47.2,46.4,30.04,NE,45,1.2,2.3,97,0.00,OVC,,0.00,WeatherDisplay:10.37,2013-04-11 13:35:00,
2013-04-11 09:41:00,47.2,46.4,30.04,SE,135,0.4,2.7,97,0.00,OVC,,0.00,WeatherDisplay:10.37,2013-04-11 13:41:00,
2013-04-11 09:46:00,47.0,46.2,30.03,SSE,157,1.4,2.7,97,0.00,OVC,,0.00,WeatherDisplay:10.37,2013-04-11 13:46:00,
2013-04-11 09:51:00,47.0,46.2,30.04,NNW,337,0.0,0.0,97,0.00,OVC,,0.00,WeatherDisplay:10.37,2013-04-11 13:51:00,
2013-04-11 09:56:00,46.9,46.1,30.04,WSW,247,2.9,2.9,97,0.00,OVC,,0.00,WeatherDisplay:10.37,2013-04-11 13:56:00,
2013-04-11 10:01:00,46.9,46.1,30.03,North,360,1.9,2.3,97,0.00,OVC,,0.00,WeatherDisplay:10.37,2013-04-11 14:01:00,
2013-04-11 10:05:00,46.9,46.1,30.04,SE,135,1.3,2.3,97,0.00,OVC,,0.00,WeatherDisplay:10.37,2013-04-11 14:05:00,
2013-04-11 10:11:00,46.9,46.1,30.04,NE,45,0.8,2.3,97,0.00,OVC,,0.00,WeatherDisplay:10.37,2013-04-11 14:11:00,
2013-04-11 10:16:00,46.8,46.0,30.05,SE,135,2.0,2.3,97,0.00,OVC,,0.00,WeatherDisplay:10.37,2013-04-11 14:16:00,
2013-04-11 10:21:00,46.9,46.1,30.05,SE,135,0.0,2.3,97,0.00,OVC,,0.01,WeatherDisplay:10.37,2013-04-11 14:21:00,
2013-04-11 10:26:00,46.9,46.1,30.05,SE,135,1.7,2.3,97,0.01,RA,,0.01,WeatherDisplay:10.37,2013-04-11 14:26:00,
2013-04-11 10:31:00,46.9,46.1,30.05,NNE,22,0.4,1.2,97,0.01,RA,,0.01,WeatherDisplay:10.37,2013-04-11 14:31:00,
2013-04-11 10:36:00,47.1,46.3,30.05,North,360,1.5,2.3,97,0.01,OVC,,0.01,WeatherDisplay:10.37,2013-04-11 14:36:00,
2013-04-11 10:41:00,47.1,46.3,30.05,NE,45,1.9,2.3,97,0.01,OVC,,0.01,WeatherDisplay:10.37,2013-04-11 14:41:00,
2013-04-11 10:46:00,47.1,46.3,30.05,SSE,157,0.9,2.3,97,0.01,OVC,,0.02,WeatherDisplay:10.37,2013-04-11 14:46:00,
2013-04-11 10:51:00,46.8,46.0,30.05,NE,45,2.7,2.7,97,0.02,RA,,0.02,WeatherDisplay:10.37,2013-04-11 14:51:00,
2013-04-11 10:56:00,46.5,45.7,30.06,SE,135,2.6,2.6,97,0.02,RA,,0.03,WeatherDisplay:10.37,2013-04-11 14:56:00,
2013-04-11 11:01:00,46.1,45.3,30.06,SE,135,2.2,2.3,97,0.03,RA,,0.03,WeatherDisplay:10.37,2013-04-11 15:01:00,
2013-04-11 11:06:00,45.9,45.1,30.06,SSE,157,0.6,2.3,97,0.03,RA,,0.03,WeatherDisplay:10.37,2013-04-11 15:06:00,
2013-04-11 11:11:00,45.8,45.0,30.07,South,180,2.9,2.9,97,0.03,OVC,,0.03,WeatherDisplay:10.37,2013-04-11 15:11:00,
2013-04-11 11:16:00,45.6,44.8,30.07,North,360,0.8,2.3,97,0.04,RA,,0.04,WeatherDisplay:10.37,2013-04-11 15:16:00,
2013-04-11 11:21:00,45.7,44.9,30.07,NE,45,0.0,2.3,97,0.04,RA,,0.04,WeatherDisplay:10.37,2013-04-11 15:21:00,
2013-04-11 11:26:00,45.7,44.9,30.07,North,360,1.3,2.7,97,0.03,OVC,,0.04,WeatherDisplay:10.37,2013-04-11 15:26:00,
2013-04-11 11:31:00,45.6,44.8,30.08,SE,135,0.4,2.7,97,0.03,OVC,,0.04,WeatherDisplay:10.37,2013-04-11 15:31:00,
2013-04-11 11:36:00,45.5,44.7,30.08,SE,135,1.4,1.4,97,0.03,OVC,,0.04,WeatherDisplay:10.37,2013-04-11 15:36:00,
2013-04-11 11:41:00,45.5,44.7,30.08,SE,135,1.0,2.3,97,0.03,OVC,,0.04,WeatherDisplay:10.37,2013-04-11 15:41:00,
2013-04-11 11:46:00,45.3,44.5,30.08,SE,135,0.5,2.3,97,0.03,OVC,,0.04,WeatherDisplay:10.37,2013-04-11 15:46:00,
2013-04-11 11:51:00,45.3,44.5,30.08,SE,135,1.2,2.3,97,0.03,RA,,0.05,WeatherDisplay:10.37,2013-04-11 15:51:00,
2013-04-11 11:56:00,45.3,44.5,30.08,SE,135,3.0,3.0,97,0.03,RA,,0.05,WeatherDisplay:10.37,2013-04-11 15:56:00,
2013-04-11 12:01:00,45.3,44.5,30.07,SE,135,2.5,2.7,97,0.02,OVC,,0.05,WeatherDisplay:10.37,2013-04-11 16:01:00,
2013-04-11 12:06:00,45.2,44.4,30.08,South,180,1.0,2.3,97,0.02,OVC,,0.05,WeatherDisplay:10.37,2013-04-11 16:06:00,
2013-04-11 12:11:00,45.2,44.4,30.08,South,180,2.2,2.3,97,0.02,OVC,,0.05,WeatherDisplay:10.37,2013-04-11 16:11:00,
2013-04-11 12:16:00,45.1,44.3,30.08,SE,135,2.5,2.5,97,0.01,OVC,,0.05,WeatherDisplay:10.37,2013-04-11 16:16:00,
2013-04-11 12:21:00,44.9,43.8,30.08,SE,135,2.8,4.6,96,0.01,OVC,,0.05,WeatherDisplay:10.37,2013-04-11 16:21:00,
2013-04-11 12:26:00,44.9,43.8,30.07,SE,135,2.6,6.9,96,0.01,OVC,,0.05,WeatherDisplay:10.37,2013-04-11 16:26:00,
2013-04-11 12:31:00,45.1,44.3,30.07,SSE,157,1.7,2.7,97,0.01,OVC,,0.05,WeatherDisplay:10.37,2013-04-11 16:31:00,
2013-04-11 12:36:00,44.9,43.8,30.07,SE,135,2.5,5.8,96,0.02,RA,,0.06,WeatherDisplay:10.37,2013-04-11 16:36:00,
2013-04-11 12:41:00,44.9,43.8,30.07,South,180,1.8,2.7,96,0.02,RA,,0.06,WeatherDisplay:10.37,2013-04-11 16:41:00,
2013-04-11 12:46:00,44.9,43.8,30.08,South,180,2.8,5.8,96,0.02,OVC,,0.06,WeatherDisplay:10.37,2013-04-11 16:46:00,
2013-04-11 12:51:00,44.9,43.8,30.07,NNE,22,2.9,5.8,96,0.01,OVC,,0.06,WeatherDisplay:10.37,2013-04-11 16:51:00,
2013-04-11 12:56:00,45.2,44.4,30.08,North,360,3.7,5.8,97,0.01,OVC,,0.06,WeatherDisplay:10.37,2013-04-11 16:56:00,
2013-04-11 13:01:00,45.2,44.4,30.08,WNW,292,2.7,2.7,97,0.01,OVC,,0.06,WeatherDisplay:10.37,2013-04-11 17:01:00,
2013-04-11 13:06:00,45.5,44.7,30.08,NNW,337,2.0,2.3,97,0.01,OVC,,0.06,WeatherDisplay:10.37,2013-04-11 17:06:00,
2013-04-11 13:11:00,46.2,45.4,30.08,North,360,3.4,4.6,97,0.01,OVC,,0.06,WeatherDisplay:10.37,2013-04-11 17:11:00,
2013-04-11 13:16:00,46.9,45.8,30.08,North,360,2.9,6.9,96,0.01,OVC,,0.06,WeatherDisplay:10.37,2013-04-11 17:16:00,
2013-04-11 13:21:00,47.5,46.7,30.09,NW,315,1.2,4.6,97,0.01,OVC,,0.06,WeatherDisplay:10.37,2013-04-11 17:21:00,
2013-04-11 13:26:00,47.8,46.4,30.08,WNW,292,2.0,2.3,95,0.01,OVC,,0.06,WeatherDisplay:10.37,2013-04-11 17:26:00,
2013-04-11 13:31:00,48.3,46.9,30.09,West,270,3.0,3.0,95,0.01,OVC,,0.06,WeatherDisplay:10.37,2013-04-11 17:31:00,
2013-04-11 13:36:00,48.8,47.2,30.09,NNE,22,0.9,2.7,94,0.00,OVC,,0.06,WeatherDisplay:10.37,2013-04-11 17:36:00,
2013-04-11 13:41:00,49.4,46.0,30.09,NNE,22,3.3,5.8,88,0.00,OVC,,0.06,WeatherDisplay:10.37,2013-04-11 17:41:00,
2013-04-11 13:46:00,49.9,47.1,30.09,NE,45,2.1,2.3,90,0.00,OVC,,0.06,WeatherDisplay:10.37,2013-04-11 17:46:00,
2013-04-11 13:51:00,50.3,46.9,30.09,SSW,202,0.7,2.3,88,0.00,OVC,,0.06,WeatherDisplay:10.37,2013-04-11 17:51:00,
2013-04-11 13:56:00,50.6,45.3,30.09,NW,315,3.4,5.8,82,0.00,OVC,,0.06,WeatherDisplay:10.37,2013-04-11 17:56:00,
2013-04-11 14:01:00,51.7,48.9,30.08,NE,45,1.3,2.3,90,0.00,OVC,,0.06,WeatherDisplay:10.37,2013-04-11 18:01:00,
2013-04-11 14:06:00,52.1,47.1,30.09,WSW,247,3.3,4.6,83,0.00,OVC,,0.06,WeatherDisplay:10.37,2013-04-11 18:06:00,
2013-04-11 14:11:00,51.7,47.3,30.09,NW,315,1.9,2.7,85,0.00,OVC,,0.06,WeatherDisplay:10.37,2013-04-11 18:11:00,
2013-04-11 14:16:00,52.4,49.3,30.09,North,360,1.7,4.6,89,0.00,OVC,,0.06,WeatherDisplay:10.37,2013-04-11 18:16:00,
2013-04-11 14:21:00,52.9,46.2,30.09,South,180,2.5,5.8,78,0.00,OVC,,0.06,WeatherDisplay:10.37,2013-04-11 18:21:00,
2013-04-11 14:26:00,52.3,46.0,30.09,SE,135,4.1,5.8,79,0.00,OVC,,0.06,WeatherDisplay:10.37,2013-04-11 18:26:00,
2013-04-11 14:31:00,52.3,45.3,30.09,SE,135,3.8,5.8,77,0.00,OVC,,0.06,WeatherDisplay:10.37,2013-04-11 18:31:00,
2013-04-11 14:36:00,51.8,43.4,30.09,NE,45,4.8,8.1,73,0.00,OVC,,0.06,WeatherDisplay:10.37,2013-04-11 18:36:00,
2013-04-11 14:41:00,51.5,44.5,30.09,South,180,2.3,2.3,77,0.00,OVC,,0.06,WeatherDisplay:10.37,2013-04-11 18:41:00,
2013-04-11 14:46:00,51.7,43.3,30.09,South,180,2.5,5.8,73,0.00,OVC,,0.06,WeatherDisplay:10.37,2013-04-11 18:46:00,
2013-04-11 14:51:00,52.5,45.8,30.09,NE,45,1.8,2.7,78,0.00,OVC,,0.06,WeatherDisplay:10.37,2013-04-11 18:51:00,
2013-04-11 14:56:00,53.1,45.4,30.09,South,180,3.0,3.0,75,0.00,OVC,,0.06,WeatherDisplay:10.37,2013-04-11 18:56:00,
2013-04-11 15:01:00,53.7,44.1,30.09,North,360,3.0,5.8,70,0.00,OVC,,0.06,WeatherDisplay:10.37,2013-04-11 19:01:00,
2013-04-11 15:06:00,53.4,43.1,30.09,SW,225,2.8,2.8,68,0.00,OVC,,0.06,WeatherDisplay:10.37,2013-04-11 19:06:00,
2013-04-11 15:11:00,53.7,44.1,30.09,NE,45,2.7,4.6,70,0.00,OVC,,0.06,WeatherDisplay:10.37,2013-04-11 19:11:00,
2013-04-11 15:16:00,53.9,43.6,30.09,West,270,3.6,5.8,68,0.00,OVC,,0.06,WeatherDisplay:10.37,2013-04-11 19:16:00,
2013-04-11 15:21:00,53.4,43.5,30.09,North,360,2.5,2.5,69,0.00,OVC,,0.06,WeatherDisplay:10.37,2013-04-11 19:21:00,
2013-04-11 15:26:00,53.4,43.1,30.09,NE,45,2.7,2.7,68,0.00,OVC,,0.06,WeatherDisplay:10.37,2013-04-11 19:26:00,
2013-04-11 15:31:00,53.3,43.4,30.09,SE,135,2.9,5.8,69,0.00,OVC,,0.06,WeatherDisplay:10.37,2013-04-11 19:31:00,
2013-04-11 15:36:00,53.8,44.2,30.09,North,360,1.6,5.8,70,0.00,OVC,,0.06,WeatherDisplay:10.37,2013-04-11 19:36:00,
2013-04-11 15:41:00,54.3,46.2,30.09,SSE,157,3.4,4.6,74,0.00,OVC,,0.06,WeatherDisplay:10.37,2013-04-11 19:41:00,
2013-04-11 15:46:00,54.1,42.6,30.08,SW,225,3.0,5.4,65,0.00,OVC,,0.06,WeatherDisplay:10.37,2013-04-11 19:46:00,
2013-04-11 15:51:00,54.6,45.4,30.09,South,180,2.5,2.7,71,0.00,OVC,,0.06,WeatherDisplay:10.37,2013-04-11 19:51:00,
2013-04-11 15:56:00,54.6,43.5,30.09,SE,135,3.2,3.2,66,0.00,OVC,,0.06,WeatherDisplay:10.37,2013-04-11 19:56:00,
2013-04-11 16:01:00,54.1,42.2,30.08,SE,135,3.2,4.6,64,0.00,OVC,,0.06,WeatherDisplay:10.37,2013-04-11 20:01:00,
2013-04-11 16:06:00,54.8,42.9,30.09,SE,135,2.8,2.8,64,0.00,BKN,,0.06,WeatherDisplay:10.37,2013-04-11 20:06:00,
2013-04-11 16:11:00,54.9,42.1,30.09,West,270,3.1,3.1,62,0.00,BKN,,0.06,WeatherDisplay:10.37,2013-04-11 20:11:00,
2013-04-11 16:16:00,54.8,43.3,30.09,SSW,202,2.6,4.6,65,0.00,BKN,,0.06,WeatherDisplay:10.37,2013-04-11 20:16:00,
2013-04-11 16:21:00,54.5,42.6,30.09,SE,135,2.2,2.7,64,0.00,BKN,,0.06,WeatherDisplay:10.37,2013-04-11 20:21:00,
2013-04-11 16:26:00,54.3,42.8,30.09,NNW,337,2.2,2.7,65,0.00,BKN,,0.06,WeatherDisplay:10.37,2013-04-11 20:26:00,
2013-04-11 16:31:00,54.0,41.3,30.09,NNW,337,3.1,3.1,62,0.00,BKN,,0.06,WeatherDisplay:10.37,2013-04-11 20:31:00,
2013-04-11 16:36:00,53.3,41.4,30.09,SSW,202,3.8,5.8,64,0.00,BKN,,0.06,WeatherDisplay:10.37,2013-04-11 20:36:00,
2013-04-11 16:41:00,53.2,42.9,30.09,SSE,157,2.4,2.7,68,0.00,BKN,,0.06,WeatherDisplay:10.37,2013-04-11 20:41:00,
2013-04-11 16:46:00,53.0,41.9,30.09,WSW,247,2.9,6.9,66,0.00,BKN,,0.06,WeatherDisplay:10.37,2013-04-11 20:46:00,
2013-04-11 16:51:00,52.8,42.9,30.10,SE,135,2.1,2.3,69,0.00,BKN,,0.06,WeatherDisplay:10.37,2013-04-11 20:51:00,
2013-04-11 16:56:00,52.9,41.0,30.09,SE,135,3.9,5.8,64,0.00,BKN,,0.06,WeatherDisplay:10.37,2013-04-11 20:56:00,
2013-04-11 17:01:00,52.9,40.6,30.10,North,360,3.3,5.8,63,0.00,BKN,,0.06,WeatherDisplay:10.37,2013-04-11 21:01:00,
2013-04-11 17:06:00,53.0,41.9,30.09,SE,135,2.8,2.8,66,0.00,OVC,,0.06,WeatherDisplay:10.37,2013-04-11 21:06:00,
2013-04-11 17:11:00,53.0,41.9,30.10,NNW,337,1.6,2.3,66,0.00,OVC,,0.06,WeatherDisplay:10.37,2013-04-11 21:11:00,
2013-04-11 17:16:00,52.9,41.8,30.10,SE,135,3.4,5.8,66,0.00,OVC,,0.06,WeatherDisplay:10.37,2013-04-11 21:16:00,
2013-04-11 17:21:00,52.8,40.5,30.10,South,180,2.0,2.3,63,0.00,OVC,,0.06,WeatherDisplay:10.37,2013-04-11 21:21:00,
2013-04-11 17:26:00,52.7,40.0,30.10,SW,225,2.5,2.7,62,0.00,OVC,,0.06,WeatherDisplay:10.37,2013-04-11 21:26:00,
2013-04-11 17:31:00,52.7,38.8,30.10,SE,135,2.2,2.3,59,0.00,OVC,,0.06,WeatherDisplay:10.37,2013-04-11 21:31:00,
2013-04-11 17:36:00,52.7,38.8,30.09,NNW,337,2.2,2.3,59,0.00,OVC,,0.06,WeatherDisplay:10.37,2013-04-11 21:36:00,
2013-04-11 17:41:00,52.7,37.9,30.10,SSE,157,2.6,2.6,57,0.00,OVC,,0.06,WeatherDisplay:10.37,2013-04-11 21:41:00,
2013-04-11 17:46:00,52.4,38.0,30.11,SW,225,2.5,2.5,58,0.00,OVC,,0.06,WeatherDisplay:10.37,2013-04-11 21:46:00,
2013-04-11 17:51:00,52.2,36.5,30.11,NW,315,4.2,6.9,55,0.00,OVC,,0.06,WeatherDisplay:10.37,2013-04-11 21:51:00,
2013-04-11 17:56:00,51.9,36.2,30.11,NE,45,5.5,10.4,55,0.00,OVC,,0.06,WeatherDisplay:10.37,2013-04-11 21:56:00,
2013-04-11 18:01:00,51.8,36.1,30.12,NE,45,3.7,5.8,55,0.00,OVC,,0.06,WeatherDisplay:10.37,2013-04-11 22:01:00,
2013-04-11 18:06:00,51.4,37.5,30.12,West,270,1.7,2.7,59,0.00,BKN,,0.06,WeatherDisplay:10.37,2013-04-11 22:06:00,
2013-04-11 18:11:00,51.2,35.6,30.12,North,360,3.6,3.6,55,0.00,BKN,,0.06,WeatherDisplay:10.37,2013-04-11 22:11:00,
2013-04-11 18:16:00,50.8,34.7,30.12,SE,135,1.8,2.7,54,0.00,BKN,,0.06,WeatherDisplay:10.37,2013-04-11 22:16:00,
2013-04-11 18:21:00,50.5,34.9,30.12,South,180,1.5,2.3,55,0.00,BKN,,0.06,WeatherDisplay:10.37,2013-04-11 22:21:00,
2013-04-11 18:26:00,50.1,34.5,30.12,SE,135,3.7,5.8,55,0.00,BKN,,0.06,WeatherDisplay:10.37,2013-04-11 22:26:00,
2013-04-11 18:31:00,49.8,32.9,30.12,North,360,4.0,6.9,52,0.00,BKN,,0.06,WeatherDisplay:10.37,2013-04-11 22:31:00,
2013-04-11 18:36:00,49.5,32.6,30.12,West,270,2.7,4.6,52,0.00,BKN,,0.06,WeatherDisplay:10.37,2013-04-11 22:36:00,
2013-04-11 18:41:00,49.3,32.4,30.13,SW,225,3.4,4.6,52,0.00,BKN,,0.06,WeatherDisplay:10.37,2013-04-11 22:41:00,
2013-04-11 18:46:00,49.1,33.2,30.13,WSW,247,1.8,5.8,54,0.00,BKN,,0.06,WeatherDisplay:10.37,2013-04-11 22:46:00,
2013-04-11 18:51:00,48.9,32.0,30.13,NW,315,2.8,5.8,52,0.00,BKN,,0.06,WeatherDisplay:10.37,2013-04-11 22:51:00,
2013-04-11 18:56:00,48.7,31.4,30.13,SE,135,3.6,8.1,51,0.00,BKN,,0.06,WeatherDisplay:10.37,2013-04-11 22:56:00,
2013-04-11 19:01:00,48.5,31.7,30.13,SSE,157,1.7,2.3,52,0.00,BKN,,0.06,WeatherDisplay:10.37,2013-04-11 23:01:00,
2013-04-11 19:06:00,48.4,32.0,30.13,NE,45,2.1,2.3,53,0.00,OVC,,0.06,WeatherDisplay:10.37,2013-04-11 23:06:00,
2013-04-11 19:11:00,48.2,33.7,30.13,NNW,337,1.1,4.6,57,0.00,OVC,,0.06,WeatherDisplay:10.37,2013-04-11 23:11:00,
2013-04-11 19:16:00,48.0,31.2,30.13,NW,315,2.8,2.8,52,0.00,OVC,,0.06,WeatherDisplay:10.37,2013-04-11 23:16:00,
2013-04-11 19:21:00,47.9,31.6,30.13,NNE,22,1.2,2.3,53,0.00,OVC,,0.06,WeatherDisplay:10.37,2013-04-11 23:21:00,
2013-04-11 19:26:00,47.9,31.6,30.13,SE,135,2.0,4.6,53,0.00,OVC,,0.06,WeatherDisplay:10.37,2013-04-11 23:26:00,
2013-04-11 19:31:00,47.7,32.8,30.13,SE,135,0.0,0.0,56,0.00,OVC,,0.06,WeatherDisplay:10.37,2013-04-11 23:31:00,
2013-04-11 19:36:00,47.6,31.8,30.13,WNW,292,1.2,2.7,54,0.00,OVC,,0.06,WeatherDisplay:10.37,2013-04-11 23:36:00,
2013-04-11 19:41:00,47.5,32.1,30.13,SE,135,1.2,2.3,55,0.00,OVC,,0.06,WeatherDisplay:10.37,2013-04-11 23:41:00,
2013-04-11 19:46:00,47.4,30.2,30.13,NE,45,2.2,2.3,51,0.00,OVC,,0.06,WeatherDisplay:10.37,2013-04-11 23:46:00,
2013-04-11 19:51:00,47.3,30.5,30.13,West,270,1.6,2.7,52,0.00,OVC,,0.06,WeatherDisplay:10.37,2013-04-11 23:51:00,
2013-04-11 19:56:00,47.2,30.9,30.13,SSW,202,0.4,1.2,53,0.00,OVC,,0.06,WeatherDisplay:10.37,2013-04-11 23:56:00,
2013-04-11 20:01:00,47.1,30.8,30.14,SE,135,1.5,2.3,53,0.00,OVC,,0.06,WeatherDisplay:10.37,2013-04-12 00:01:00,
2013-04-11 20:06:00,46.9,31.1,30.13,SE,135,2.6,2.7,54,0.00,OVC,,0.06,WeatherDisplay:10.37,2013-04-12 00:06:00,
2013-04-11 20:11:00,46.8,30.1,30.13,SSE,157,0.8,2.3,52,0.00,OVC,,0.06,WeatherDisplay:10.37,2013-04-12 00:11:00,
2013-04-11 20:16:00,46.7,31.4,30.14,South,180,0.0,0.0,55,0.00,OVC,,0.06,WeatherDisplay:10.37,2013-04-12 00:16:00,
2013-04-11 20:21:00,46.7,30.9,30.14,NE,45,0.2,2.3,54,0.00,OVC,,0.06,WeatherDisplay:10.37,2013-04-12 00:21:00,
2013-04-11 20:26:00,46.5,31.6,30.14,SE,135,1.4,2.7,56,0.00,OVC,,0.06,WeatherDisplay:10.37,2013-04-12 00:26:00,
2013-04-11 20:31:00,46.5,30.7,30.14,SE,135,2.5,2.5,54,0.00,OVC,,0.06,WeatherDisplay:10.37,2013-04-12 00:31:00,
2013-04-11 20:36:00,46.3,30.1,30.13,West,270,2.8,5.8,53,0.00,OVC,,0.06,WeatherDisplay:10.37,2013-04-12 00:36:00,
2013-04-11 20:41:00,46.3,29.1,30.14,North,360,2.3,2.3,51,0.00,OVC,,0.06,WeatherDisplay:10.37,2013-04-12 00:41:00,
2013-04-11 20:46:00,46.2,30.0,30.14,SSW,202,1.4,2.7,53,0.00,OVC,,0.06,WeatherDisplay:10.37,2013-04-12 00:46:00,
2013-04-11 20:51:00,46.2,30.5,30.15,SSE,157,1.7,2.7,54,0.00,OVC,,0.06,WeatherDisplay:10.37,2013-04-12 00:51:00,
2013-04-11 20:56:00,46.1,31.3,30.15,SE,135,1.8,4.6,56,0.00,OVC,,0.06,WeatherDisplay:10.37,2013-04-12 00:56:00,
2013-04-11 21:01:00,45.9,31.1,30.15,NE,45,1.0,2.3,56,0.00,OVC,,0.06,WeatherDisplay:10.37,2013-04-12 01:01:00,
2013-04-11 21:06:00,45.9,30.2,30.15,WNW,292,1.1,2.7,54,0.00,OVC,,0.06,WeatherDisplay:10.37,2013-04-12 01:06:00,
2013-04-11 21:11:00,45.8,30.5,30.15,NNE,22,3.3,3.3,55,0.00,OVC,,0.06,WeatherDisplay:10.37,2013-04-12 01:11:00,
2013-04-11 21:16:00,45.7,30.4,30.15,North,360,2.9,2.9,55,0.00,OVC,,0.06,WeatherDisplay:10.37,2013-04-12 01:16:00,
2013-04-11 21:21:00,45.6,30.3,30.15,North,360,3.4,4.6,55,0.00,OVC,,0.06,WeatherDisplay:10.37,2013-04-12 01:21:00,
2013-04-11 21:26:00,45.6,29.9,30.16,SE,135,2.2,2.3,54,0.00,OVC,,0.06,WeatherDisplay:10.37,2013-04-12 01:26:00,
2013-04-11 21:31:00,45.4,29.7,30.16,South,180,2.0,2.3,54,0.00,OVC,,0.06,WeatherDisplay:10.37,2013-04-12 01:31:00,
2013-04-11 21:36:00,45.3,30.5,30.16,SE,135,1.4,2.3,56,0.00,OVC,,0.06,WeatherDisplay:10.37,2013-04-12 01:36:00,
2013-04-11 21:41:00,45.2,30.4,30.17,NE,45,2.5,6.9,56,0.00,OVC,,0.06,WeatherDisplay:10.37,2013-04-12 01:41:00,
2013-04-11 21:46:00,45.2,30.4,30.17,West,270,0.5,2.3,56,0.00,OVC,,0.06,WeatherDisplay:10.37,2013-04-12 01:46:00,
2013-04-11 21:51:00,45.1,30.3,30.17,WNW,292,0.9,2.3,56,0.00,OVC,,0.06,WeatherDisplay:10.37,2013-04-12 01:51:00,
2013-04-11 21:56:00,44.9,30.1,30.17,NE,45,0.9,2.3,56,0.00,OVC,,0.06,WeatherDisplay:10.37,2013-04-12 01:56:00,
2013-04-11 22:01:00,44.8,30.5,30.17,NE,45,0.5,2.3,57,0.00,OVC,,0.06,WeatherDisplay:10.37,2013-04-12 02:01:00,
2013-04-11 22:06:00,44.7,30.4,30.17,West,270,0.0,1.2,57,0.00,OVC,,0.06,WeatherDisplay:10.37,2013-04-12 02:06:00,
2013-04-11 22:11:00,44.6,29.9,30.17,NNW,337,0.0,1.2,56,0.00,OVC,,0.06,WeatherDisplay:10.37,2013-04-12 02:11:00,
2013-04-11 22:16:00,44.5,29.8,30.17,NNW,337,1.1,2.3,56,0.00,OVC,,0.06,WeatherDisplay:10.37,2013-04-12 02:16:00,
2013-04-11 22:21:00,44.4,31.0,30.18,NNE,22,1.1,2.3,59,0.00,OVC,,0.06,WeatherDisplay:10.37,2013-04-12 02:21:00,
2013-04-11 22:26:00,44.3,30.4,30.18,North,360,1.5,2.7,58,0.00,OVC,,0.06,WeatherDisplay:10.37,2013-04-12 02:26:00,
2013-04-11 22:31:00,44.2,29.9,30.18,South,180,0.2,2.3,57,0.00,OVC,,0.06,WeatherDisplay:10.37,2013-04-12 02:31:00,
2013-04-11 22:36:00,44.1,30.3,30.18,NE,45,0.6,1.2,58,0.00,OVC,,0.06,WeatherDisplay:10.37,2013-04-12 02:36:00,
2013-04-11 22:41:00,43.9,31.3,30.18,NNW,337,2.2,4.6,61,0.00,OVC,,0.06,WeatherDisplay:10.37,2013-04-12 02:41:00,
2013-04-11 22:46:00,43.4,33.5,30.18,NNE,22,0.0,0.0,68,0.00,OVC,,0.06,WeatherDisplay:10.37,2013-04-12 02:46:00,
2013-04-11 22:51:00,42.7,35.0,30.18,West,270,0.8,2.7,74,0.00,OVC,,0.06,WeatherDisplay:10.37,2013-04-12 02:51:00,
2013-04-11 22:56:00,42.1,35.4,30.18,North,360,1.4,8.1,77,0.00,OVC,,0.06,WeatherDisplay:10.37,2013-04-12 02:56:00,
2013-04-11 23:01:00,41.7,35.0,30.17,West,270,0.5,2.3,77,0.00,OVC,,0.06,WeatherDisplay:10.37,2013-04-12 03:01:00,
2013-04-11 23:06:00,41.3,35.3,30.17,NE,45,0.6,2.3,79,0.00,OVC,,0.06,WeatherDisplay:10.37,2013-04-12 03:06:00,
2013-04-11 23:11:00,40.9,35.2,30.18,NNE,22,2.2,2.3,80,0.00,OVC,,0.06,WeatherDisplay:10.37,2013-04-12 03:11:00,
2013-04-11 23:16:00,40.6,35.2,30.17,NE,45,1.0,2.3,81,0.00,-RA,,0.06,WeatherDisplay:10.37,2013-04-12 03:16:00,
2013-04-11 23:21:00,40.3,35.8,30.17,NNW,337,0.6,1.3,84,0.00,-RA,,0.06,WeatherDisplay:10.37,2013-04-12 03:21:00,
2013-04-11 23:26:00,40.2,35.8,30.17,North,360,0.0,0.0,84,0.00,-RA,,0.06,WeatherDisplay:10.37,2013-04-12 03:26:00,
2013-04-11 23:31:00,40.1,36.0,30.17,NW,315,0.7,2.7,85,0.00,-RA,,0.06,WeatherDisplay:10.37,2013-04-12 03:31:00,
2013-04-11 23:36:00,40.0,35.9,30.17,North,360,1.9,1.9,85,0.00,-RA,,0.06,WeatherDisplay:10.37,2013-04-12 03:36:00,
2013-04-11 23:41:00,39.9,35.8,30.17,NNW,337,1.9,2.3,85,0.00,-RA,,0.06,WeatherDisplay:10.37,2013-04-12 03:41:00,
2013-04-11 23:46:00,39.9,36.1,30.18,North,360,0.8,2.7,86,0.00,-RA,,0.06,WeatherDisplay:10.37,2013-04-12 03:46:00,
2013-04-11 23:51:00,39.9,35.8,30.18,West,270,1.5,2.3,85,0.00,-RA,,0.06,WeatherDisplay:10.37,2013-04-12 03:51:00,
2013-04-11 23:56:00,39.9,35.5,30.19,NNE,22,0.0,1.2,84,0.00,-RA,,0.06,WeatherDisplay:10.37,2013-04-12 03:56:00,